Location: Chimay
(50.0486°N, 4.3171°E)
Time: 10:41:02
(UTC+00:00)

Cosmos 1378 Rocket - Pass Details

Date: 08 August 2020
Orbit: 601 x 628 km, 82.5° (Epoch: 20 September)

Event Time Altitude Azimuth Distance (km) Brightness Sun altitude
Rises 23:22:07 0° 347° (NNW) 2,931 8.4 -23.9°
Reaches altitude 10° 23:24:23 10° 345° (NNW) 2,018 7.2 -24.0°
Maximum altitude 23:28:49 65° 264° (W) 693 3.7 -24.0°
Enters shadow 23:28:51 65° 261° (W) 693 3.7 -24.0°
